Location: Brompton
(51.4000°N, 0.5333°E)
Time: 09:40:49
(UTC+00:00)

Cosmos 1378 - Pass Details

Date: 11 May 2021
Orbit: 491 x 498 km, 82.5° (Epoch: 12 June)

Event Time Altitude Azimuth Distance (km) Brightness Sun altitude
Exits shadow 23:34:56 38° 100° (E) 777 3.9 -20.3°
Maximum altitude 23:35:06 38° 93° (E) 774 3.9 -20.3°
Drops below altitude 10° 23:38:34 10° 25° (NNE) 1,706 6.7 -20.4°
Sets 23:40:47 0° 17° (NNE) 2,596 8.0 -20.4°
